Calaveras, Mexico

2:03 AM MST on February 26, 2017 (GMT -0700)
Gen Rafael Buelna International

Weather History for MMMZ - January, 2013

Change the Weather History Date:

Sunday, January 6, 2013

  Actual Average Record
Temperature  
Mean Temperature 64 °F -  
Max Temperature 78 °F 79 °F 84 °F (1999)
Min Temperature 51 °F 51 °F 46 °F (2000)
Growing Degree Days 14 (Base 50)    
Moisture  
Dew Point 54 °F    
Average Humidity 75    
Maximum Humidity 94    
Minimum Humidity 44    
Precipitation  
Precipitation 0.00 in - - ()
Sea Level Pressure  
Sea Level Pressure 29.92 in    
Wind  
Wind Speed 7 mph ()    
Max Wind Speed 13 mph    
Max Gust Speed -    
Visibility 12.6 miles    
Events      
Averages and records for this station are not official NWS values.
T = Trace of Precipitation, MM = Missing Value Source: Averaged Metar Reports

Daily Weather History Graph

Daily Weather History Graph

Search for Another Location

Airport or City:

Trip Planner

Search our weather history database for the weather conditions in past years. The results will help you decide how hot, cold, wet, or windy it might be!

Date:

Astronomy

Jan. 06, 2013 Rise Set
Actual Time 6:47 AM MST 5:34 PM MST
Civil Twilight 6:23 AM MST 5:59 PM MST
Nautical Twilight 5:55 AM MST 6:26 PM MST
Astronomical Twilight 5:27 AM MST 6:54 PM MST
Moon 1:19 AM MST (1/6) 12:52 PM MST (1/6)
Length of Visible Light 11h 35m
Length of Day
10h 46m
Waning Crescent, 32% of the Moon is Illuminated
Jan 6
Waning Crescent
Jan 11
New
Jan 18
First Quarter
Jan 26
Full
Feb 3
Last Quarter

Hourly Weather History & Observations

Time (MST) Temp. Dew Point Humidity Pressure Visibility Wind Dir Wind Speed Gust Speed Precip Events Conditions
12:43 AM 55.4 °F 51.8 °F 88% 29.97 in 10.0 mi North 6.9 mph - N/A   Clear
2:04 AM 53.6 °F 51.8 °F 94% 29.95 in 10.0 mi North 6.9 mph - N/A   Clear
2:42 AM 53.6 °F 51.8 °F 94% 29.95 in 10.0 mi North 6.9 mph - N/A   Clear
3:47 AM 51.8 °F 48.2 °F 88% 29.94 in 10.0 mi NNE 6.9 mph - N/A   Clear
4:46 AM 51.8 °F 50.0 °F 94% 29.94 in 10.0 mi North 6.9 mph - N/A   Clear
5:41 AM 51.8 °F 50.0 °F 94% 29.95 in 10.0 mi North 6.9 mph - N/A   Clear
6:40 AM 51.8 °F 48.2 °F 88% 29.97 in 15.0 mi North 6.9 mph - N/A   Clear
7:43 AM 53.6 °F 51.8 °F 94% 29.98 in 15.0 mi North 6.9 mph - N/A   Clear
8:42 AM 62.6 °F 55.4 °F 77% 30.00 in 15.0 mi North 6.9 mph - N/A   Partly Cloudy
9:43 AM 69.8 °F 57.2 °F 64% 29.99 in 15.0 mi ESE 5.8 mph - N/A   Scattered Clouds
10:52 AM 75.2 °F 55.4 °F 50% 29.97 in 15.0 mi SW 8.1 mph - N/A   Scattered Clouds
11:43 AM 78.8 °F 55.4 °F 44% 29.94 in 15.0 mi South 8.1 mph - N/A   Mostly Cloudy
12:44 PM 78.8 °F 55.4 °F 44% 29.90 in 15.0 mi SSW 10.4 mph - N/A   Mostly Cloudy
1:40 PM 77.0 °F 55.4 °F 47% 29.86 in 15.0 mi SSW 9.2 mph - N/A   Mostly Cloudy
2:43 PM 73.4 °F 60.8 °F 65% 29.85 in 15.0 mi WSW 10.4 mph - N/A   Mostly Cloudy
3:42 PM 75.2 °F 59.0 °F 57% 29.85 in 15.0 mi WSW 10.4 mph - N/A   Mostly Cloudy
4:42 PM 75.2 °F 57.2 °F 53% 29.85 in 15.0 mi West 12.7 mph - N/A   Mostly Cloudy
5:40 PM 71.6 °F 55.4 °F 57% 29.86 in 15.0 mi West 11.5 mph - N/A   Partly Cloudy
6:41 PM 64.4 °F 55.4 °F 73% 29.86 in 12.0 mi West 9.2 mph - N/A   Clear
7:43 PM 62.6 °F 57.2 °F 82% 29.88 in 10.0 mi West 8.1 mph - N/A   Clear
8:42 PM 57.2 °F 53.6 °F 88% 29.89 in 10.0 mi WNW 6.9 mph - N/A   Clear
9:45 PM 55.4 °F 51.8 °F 88% 29.91 in 10.0 mi SW 6.9 mph - N/A   Clear
10:46 PM 53.6 °F 50.0 °F 88% 29.90 in 10.0 mi East 6.9 mph - N/A   Clear
11:46 PM 53.6 °F 50.0 °F 88% 29.89 in 10.0 mi NNE 8.1 mph - N/A   Clear